Regional Weather Roundup
Issued by NWS

Home | Current Version | Previous Version | Graphics & Text | Print | Product List | Glossary Off
Versions: 1 2 3 4 5 6 7 8 9 10 11 12 13 14 15 16 17 18 19 20 21 22 23 24 25 26 27 28 29 30 31 32 33 34 35 36 37 38 39 40 41 42 43 44 45 46 47 48 49 50

000
ASUS43 KTOP 020408
RWRKS

WEATHER ROUNDUP FOR KANSAS
NATIONAL WEATHER SERVICE GOODLAND KS
1100 PM CDT FRI AUG 01 2014

NOTE:  "FAIR" INDICATES FEW OR NO CLOUDS BELOW 12,000 FEET WITH NO
SIGNIFICANT WEATHER AND/OR OBSTRUCTIONS TO VISIBILITY.

KSZ001>006-013>018-027>032-041>047-020500-
NORTHWEST KANSAS

CITY           SKY/WX    TMP DP  RH WIND       PRES   REMARKS
GOODLAND       PTCLDY    66  55  67 S8        30.20R
HAYS           CLEAR     70  52  52 E7        30.11S
HILL CITY      PTCLDY    68  54  60 CALM      30.13R
RUSSELL        CLEAR     69  54  58 NE8       30.09R
$$

KSZ061>065-074>080-084>089-020500-
SOUTHWEST KANSAS

CITY           SKY/WX    TMP DP  RH WIND       PRES   REMARKS
DODGE CITY     MOCLDY    72  58  61 CALM      30.14R
ELKHART          N/A     69  57  65 SE6         N/A
GARDEN CITY    MOCLDY    72  61  68 E8        30.15R
GREAT BEND       N/A     70  57  64 NE5       30.09R
LIBERAL        MOCLDY    75  54  46 SE6       30.17R
PRATT          PTCLDY    73  55  53 CALM      30.11R
$$

KSZ066>073-081>083-090>101-020500-
SOUTHEAST KANSAS

CITY           SKY/WX    TMP DP  RH WIND       PRES   REMARKS
CHANUTE        CLEAR     68  64  87 S3        30.08R
COFFEYVILLE    CLEAR     69  64  84 CALM      30.07R
HUTCHINSON     PTCLDY    69  50  50 N7        30.07R
MEDICINE LODGE   N/A     71  66  84 NE3       30.06R
NEWTON         CLEAR     70  48  46 CALM      30.10R
PARSONS        CLEAR     67  64  90 CALM      30.08R
WICHITA INTL   PTCLDY    74  65  73 S3        30.06R
WICHITA JABRA  CLEAR     74  66  76 S6        30.06R
WICHITA MCCONL CLEAR     73  69  86 SE8       30.07R
WINFIELD       CLEAR     73  67  81 SE7       30.08R
$$

KSZ007>012-019>026-033>040-048>060-102>105-020500-
NORTHEAST KANSAS

CITY           SKY/WX    TMP DP  RH WIND       PRES   REMARKS
CONCORDIA      CLEAR     72  64  76 N6        30.08R
EMPORIA        CLEAR     72  64  76 S8        30.06R
LAWRENCE       PTCLDY    70  62  76 E3        30.08R
MANHATTAN      CLEAR     76  65  68 E10       30.04R
MARYSVILLE     MOCLDY    72  63  73 E8        30.08S
OLATHE IND     CLEAR     72  62  71 E5        30.09R
OLATHE EXE     CLEAR     73  62  68 E3        30.09R
SALINA         PTCLDY    74  58  57 NW7       30.06R
TOPEKA BILLARD CLEAR     74  65  73 E5        30.07R
TOPEKA FORBES  CLEAR     73  63  70 SE7       30.08R
$$



USA.gov is the U.S. government's official web portal to all federal, state and local government web resources and services.